[[{"header":{"parameterUnit":"m.s-1","parameterCategory":1,"la1":30.2991,"la2":30.254,"lo1":-89.0895,"lo2":-89.0444,"dy":0.0017,"dx":0.0017,"nx":28,"ny":28,"refTime":"2023-10-17T09:00:00:Z","depth":0,"parameterNumber":2,"parameterNumberName":"U-component_of_WINDS"},"data":[0,0,0,0,0,0,0,0,0,0,0,0,0,0,0,0,0,0,0,0,0,0,0,0,0,0,0,0,0,0,0,0,0,0,0,0,0,0,0,0,0,0,0,0,0,0,0,0,0,0,0,0,0,0,0,0,0,0,-3.5793,-3.5794,0,-3.5813,-3.5813,-3.5814,-3.5773,-3.5771,-3.577,-3.5769,-3.5787,-3.5788,-3.579,0,0,0,0,0,0,0,0,0,0,0,0,0,-3.5718,-3.572,-3.5793,-3.5794,-3.5794,-3.5813,-3.5813,-3.5814,-3.5773,-3.5771,-3.577,-3.5768,-3.5786,-3.5788,-3.579,0,0,0,0,0,0,0,0,0,0,0,0,0,-3.5746,-3.5721,-3.5793,-3.5776,-3.5775,-3.5813,-3.5814,-3.5814,-3.5773,-3.5771,-3.5769,-3.5767,-3.5786,-3.5788,-3.5791,-3.5846,0,0,-3.5798,-3.58,0,0,0,0,0,0,0,0,-3.5744,-3.5749,-3.5778,-3.5777,-3.5776,-3.5789,-3.5794,-3.5825,-3.5774,-3.5774,-3.5769,-3.5767,-3.5789,-3.5791,-3.5799,-3.5847,-3.5848,-3.5799,-3.58,-3.5801,-3.5802,0,0,0,0,0,0,0,-3.5743,-3.5748,-3.5801,-3.5779,-3.5777,-3.5767,-3.5768,-3.5799,-3.5792,-3.5774,-3.5771,-3.5774,-3.5788,-3.5797,-3.5799,-3.5848,-3.5799,-3.5801,-3.5802,-3.5803,-3.5943,-3.5945,0,0,0,0,0,0,-3.5743,-3.5746,-3.58,-3.5802,-3.5755,-3.577,-3.5771,-3.5786,-3.5792,-3.5791,-3.5775,-3.5772,-3.5793,-3.5796,-3.58,-3.5865,-3.5801,-3.5804,-3.5805,-3.5941,-3.5944,-3.5946,0,0,0,0,0,0,-3.5742,-3.5748,-3.58,-3.5773,-3.5779,-3.5773,-3.579,-3.5788,-3.5797,-3.5793,-3.5791,-3.5786,-3.5792,-3.5796,-3.5835,-3.5865,-3.5805,-3.5807,-3.5938,-3.5942,-3.5945,-3.5996,0,0,0,0,0,0,-3.574,-3.5748,-3.5769,-3.5774,-3.5781,-3.5835,-3.5792,-3.579,-3.5801,-3.5797,-3.5802,-3.5801,-3.5791,-3.5832,-3.5838,-3.5867,-3.5809,-3.5936,-3.594,-3.5944,-3.5991,-3.6,-3.6008,0,0,0,0,0,-3.5737,-3.5782,-3.5771,-3.5777,-3.5807,-3.5837,-3.5841,-3.5828,-3.5804,-3.5825,-3.5823,-3.5801,-3.5861,-3.5836,-3.5842,-3.5873,-3.5934,-3.5939,-3.5943,-3.5987,-3.5998,-3.6008,0,0,0,0,0,0,-3.578,-3.5783,-3.577,-3.5818,-3.5828,-3.583,-3.5856,-3.584,-3.5856,-3.5851,-3.5834,-3.5836,-3.5878,-3.588,-3.5852,-3.5928,-3.5893,-3.59,-3.5924,-3.5935,-3.5943,-3.5941,-3.5811,0,0,0,0,0,-3.5795,-3.582,-3.5821,-3.5863,-3.5869,-3.5862,-3.5875,-3.5864,-3.5873,-3.5877,-3.5878,-3.5887,-3.5908,-3.5922,-3.5941,-3.5992,-3.5992,-3.6017,-3.6025,-3.6032,-3.6037,-3.6064,-3.6075,-3.5962,-3.5962,-3.5962,0,0,-3.5826,-3.5831,-3.5847,-3.5872,-3.5878,-3.5904,-3.5866,-3.5894,-3.5913,-3.5881,-3.5918,-3.5919,-3.5929,-3.5974,-3.5994,-3.5977,-3.6069,-3.6038,-3.6044,-3.6045,-3.607,-3.6081,-3.609,-3.5965,-3.5965,-3.5964,0,0,-3.5896,-3.5902,-3.5938,-3.5946,-3.5957,-3.5952,-3.5961,-3.5967,-3.5967,-3.6004,-3.5981,-3.6003,-3.6039,-3.6047,-3.6055,-3.613,-3.611,-3.6137,-3.6179,-3.6206,-3.6215,-3.6223,-3.6249,-3.6258,-3.6142,-3.6143,-3.6143,0,-3.5933,-3.5971,-3.5959,-3.5989,-3.6,-3.5975,-3.6011,-3.6019,-3.6035,-3.6043,-3.6024,-3.607,-3.6074,-3.6121,-3.6139,-3.6148,-3.6156,-3.6135,-3.6215,-3.6223,-3.623,-3.6254,-3.6264,-3.6146,-3.6145,-3.6145,-3.6145,0,-3.6015,-3.6042,-3.607,-3.6088,-3.6102,-3.6136,-3.6128,-3.6144,-3.6133,-3.6131,-3.6169,-3.6174,-3.6194,-3.6204,-3.6193,-3.625,-3.6239,-3.6218,-3.6183,-3.6244,-3.6266,-3.6275,-3.615,-3.6149,-3.6148,-3.6147,0,0,-3.611,-3.6122,-3.6132,-3.614,-3.6151,-3.6171,-3.6204,-3.6224,-3.6238,-3.6251,-3.6277,-3.6309,-3.629,-3.63,-3.629,-3.6314,-3.6372,-3.6289,-3.6289,-3.6303,-3.6434,-3.6448,-3.6459,-3.636,-3.6362,-3.6363,-3.6433,0,-3.6178,-3.6234,-3.6225,-3.6279,-3.6303,-3.628,-3.6308,-3.6318,-3.6317,-3.6338,-3.6336,-3.6359,-3.6333,-3.6338,-3.6361,-3.636,-3.6397,-3.6355,-3.6383,-3.6384,-3.6379,-3.6471,-3.6486,-3.6552,-3.6441,-3.6443,-3.6444,0,-3.6264,-3.6281,-3.6338,-3.6346,-3.6356,-3.6381,-3.64,-3.642,-3.6431,-3.6428,-3.6441,-3.6427,-3.6458,-3.6425,-3.6468,-3.6439,-3.645,-3.6452,-3.6454,-3.6454,-3.6416,-3.6473,-3.6572,-3.6581,-3.6458,-3.6457,-3.6456,0,-3.6326,-3.6363,-3.6402,-3.641,-3.642,-3.6439,-3.6444,-3.6453,-3.6466,-3.6482,-3.649,-3.651,-3.652,-3.6535,-3.6527,-3.6503,-3.6571,-3.6537,-3.6569,-3.6569,-3.6583,-3.6582,-3.6684,-3.6593,-3.6593,-3.6593,-3.6593,0,-3.6401,-3.6437,-3.643,-3.6454,-3.6493,-3.6482,-3.6521,-3.6523,-3.6532,-3.6555,-3.6537,-3.6559,-3.6548,-3.6569,-3.6563,-3.6599,-3.6604,-3.6603,-3.66,-3.6603,-3.6603,-3.6609,-3.6603,-3.6595,-3.6595,-3.6594,-3.6594,0,-3.6476,-3.6473,-3.6514,-3.6521,-3.6524,-3.6553,-3.6559,-3.6581,-3.6579,-3.6609,-3.6616,-3.6613,-3.6638,-3.6631,-3.6658,-3.6654,-3.6699,-3.6692,-3.6696,-3.6693,-3.6725,-3.6722,-3.6833,-3.6847,-3.6749,-3.675,-3.6751,0,-3.6523,-3.655,-3.6562,-3.6576,-3.6583,-3.6608,-3.6621,-3.6613,-3.6628,-3.6643,-3.6663,-3.6686,-3.6704,-3.6744,-3.6744,-3.6764,-3.6756,-3.6794,-3.6759,-3.6761,-3.6755,-3.6753,-3.6755,-3.68,-3.6801,-3.6802,-3.6803,0,-3.6608,-3.6606,-3.6626,-3.6648,-3.6665,-3.6681,-3.6695,-3.6708,-3.67,-3.6718,-3.6743,-3.6757,-3.6785,-3.6808,-3.6827,-3.6831,-3.6816,-3.6814,-3.6823,-3.6825,-3.6825,-3.6824,-3.6713,-3.6811,-3.681,-3.681,-3.6809,-3.6809,-3.6669,-3.6692,-3.6704,-3.6728,-3.6738,-3.6752,-3.6773,-3.6776,-3.6797,-3.6819,-3.6813,-3.6842,-3.6853,-3.6877,-3.6884,-3.6906,-3.6891,-3.6904,-3.6906,-3.6909,-3.6913,-3.6824,-3.6909,-3.6909,-3.6909,-3.6909,-3.6909,0,-3.6751,-3.6758,-3.6781,-3.6802,-3.6821,-3.6807,-3.6822,-3.6839,-3.6864,-3.6877,-3.6895,-3.6924,-3.6947,-3.695,-3.6971,-3.6988,-3.6981,-3.6994,-3.6991,-3.6993,-3.6925,-3.6915,-3.6999,-3.6999,-3.6999,-3.6999,-3.6999,-3.6999,-3.6796,-3.6834,-3.6834,-3.6876,-3.6883,-3.6912,-3.6922,-3.6934,-3.6944,-3.6978,-3.6997,-3.6999,-3.7008,-3.703,-3.705,-3.705,-3.7058,-3.7073,-3.707,-3.7006,-3.6997,-3.6989,-3.6979,-3.7075,-3.7075,-3.7136,-3.7136,-3.7137]},{"header":{"parameterUnit":"m.s-1","parameterCategory":1,"la1":30.2991,"la2":30.254,"lo1":-89.0895,"lo2":-89.0444,"dy":0.0017,"dx":0.0017,"nx":28,"ny":28,"refTime":"2023-10-17T09:00:00:Z","depth":0,"parameterNumber":3,"parameterNumberName":"V-component_of_WINDS"},"data":[0,0,0,0,0,0,0,0,0,0,0,0,0,0,0,0,0,0,0,0,0,0,0,0,0,0,0,0,0,0,0,0,0,0,0,0,0,0,0,0,0,0,0,0,0,0,0,0,0,0,0,0,0,0,0,0,0,0,0.4947,0.4946,0,0.4886,0.4886,0.4885,0.4871,0.4871,0.4872,0.4872,0.4807,0.4805,0.4803,0,0,0,0,0,0,0,0,0,0,0,0,0,0.5048,0.5047,0.4947,0.4946,0.4945,0.4886,0.4886,0.4885,0.4871,0.4871,0.4872,0.4872,0.4808,0.4806,0.4803,0,0,0,0,0,0,0,0,0,0,0,0,0,0.4998,0.5046,0.4947,0.4932,0.493,0.4887,0.4886,0.4884,0.4871,0.4871,0.4872,0.4873,0.4809,0.4806,0.4803,0.477,0,0,0.4793,0.4791,0,0,0,0,0,0,0,0,0.5001,0.4994,0.4935,0.4933,0.493,0.4887,0.4898,0.4846,0.4871,0.4893,0.4872,0.4873,0.4833,0.4828,0.4815,0.4767,0.4764,0.4793,0.4791,0.4789,0.4788,0,0,0,0,0,0,0,0.5004,0.4997,0.4923,0.4934,0.4931,0.4927,0.492,0.4888,0.486,0.4891,0.489,0.4883,0.4832,0.4818,0.4813,0.4763,0.4793,0.479,0.4788,0.4787,0.4685,0.4684,0,0,0,0,0,0,0.5011,0.5,0.4925,0.4921,0.4968,0.4924,0.4917,0.49,0.486,0.4855,0.4883,0.4883,0.4823,0.4817,0.4811,0.477,0.4789,0.4786,0.4784,0.4686,0.4685,0.4684,0,0,0,0,0,0,0.5013,0.5004,0.4927,0.496,0.495,0.4922,0.4903,0.4899,0.4885,0.4854,0.4849,0.4874,0.4824,0.4816,0.478,0.4768,0.4785,0.4782,0.4687,0.4686,0.4684,0.4688,0,0,0,0,0,0,0.5016,0.5005,0.4993,0.496,0.4948,0.4898,0.4902,0.4897,0.488,0.4879,0.4844,0.4839,0.4823,0.4785,0.4777,0.4764,0.4779,0.4688,0.4686,0.4685,0.4689,0.4687,0.4686,0,0,0,0,0,0.502,0.4996,0.4992,0.4983,0.4933,0.4898,0.4891,0.4874,0.4879,0.4866,0.4846,0.484,0.4771,0.4782,0.4773,0.4758,0.4688,0.4687,0.4685,0.469,0.4688,0.4686,0,0,0,0,0,0,0.5027,0.4991,0.4987,0.4952,0.4928,0.4895,0.4879,0.4872,0.4846,0.4847,0.4826,0.4818,0.4785,0.4768,0.4781,0.4724,0.473,0.4726,0.4736,0.4734,0.4733,0.4737,0.4777,0,0,0,0,0,0.5025,0.5001,0.497,0.4942,0.493,0.4907,0.4891,0.488,0.4854,0.4844,0.4821,0.4796,0.4768,0.475,0.4723,0.4687,0.4679,0.4672,0.4671,0.4669,0.4666,0.4646,0.4642,0.4678,0.4678,0.4678,0,0,0.502,0.4997,0.4983,0.4943,0.4923,0.4898,0.4898,0.4871,0.4852,0.4839,0.4805,0.4788,0.4758,0.4722,0.4705,0.4707,0.4655,0.4667,0.4666,0.4664,0.4644,0.464,0.4637,0.4677,0.4677,0.4678,0,0,0.4997,0.4978,0.4952,0.4933,0.4903,0.4888,0.4882,0.485,0.4838,0.4804,0.4794,0.477,0.4723,0.4702,0.4685,0.4655,0.4649,0.4647,0.4638,0.4618,0.4616,0.4613,0.4602,0.4598,0.4644,0.4644,0.4644,0,0.4994,0.4956,0.494,0.4913,0.4896,0.4885,0.4858,0.484,0.4803,0.4791,0.4793,0.4734,0.4713,0.4672,0.4665,0.4652,0.4644,0.4651,0.4618,0.4615,0.4612,0.4601,0.4597,0.4644,0.4644,0.4644,0.4644,0,0.4954,0.4927,0.491,0.4876,0.4856,0.483,0.4809,0.4791,0.4783,0.4767,0.4731,0.4706,0.4673,0.4663,0.4653,0.4621,0.4623,0.4622,0.4627,0.4609,0.4598,0.4594,0.4644,0.4644,0.4644,0.4644,0,0,0.4933,0.4891,0.4885,0.4869,0.4836,0.4815,0.4788,0.4757,0.4742,0.4717,0.4693,0.4654,0.4653,0.4634,0.4622,0.4605,0.4582,0.4606,0.4605,0.4602,0.4544,0.4545,0.4541,0.4578,0.4577,0.4577,0.4547,0,0.4907,0.4859,0.4844,0.4804,0.4779,0.4769,0.4745,0.4722,0.4706,0.4682,0.4664,0.4637,0.4638,0.4626,0.4609,0.4589,0.457,0.4591,0.4555,0.4554,0.4563,0.4535,0.4536,0.4509,0.4543,0.4542,0.4541,0,0.4869,0.4844,0.4802,0.4772,0.4761,0.4741,0.4711,0.4689,0.4662,0.4652,0.4631,0.462,0.4591,0.4598,0.4557,0.4571,0.4556,0.4544,0.4542,0.4538,0.4546,0.453,0.45,0.4496,0.4535,0.4535,0.4536,0,0.4859,0.4815,0.4784,0.4771,0.4735,0.4721,0.4705,0.4679,0.4661,0.4635,0.4624,0.4594,0.4578,0.4555,0.4537,0.4544,0.4497,0.4503,0.4487,0.4488,0.4478,0.4479,0.4445,0.4468,0.4469,0.4469,0.4469,0,0.483,0.4805,0.4779,0.476,0.4731,0.4713,0.4685,0.4668,0.4645,0.4622,0.4611,0.4589,0.4567,0.4542,0.4527,0.4495,0.4488,0.4478,0.4475,0.4479,0.4481,0.4469,0.447,0.4468,0.4468,0.4468,0.4468,0,0.4813,0.4795,0.4761,0.473,0.4722,0.4702,0.4675,0.4656,0.464,0.4611,0.4603,0.4578,0.4548,0.4528,0.449,0.448,0.4445,0.4442,0.4455,0.4453,0.4439,0.444,0.4395,0.4389,0.4417,0.4417,0.4417,0,0.4796,0.4777,0.4745,0.4729,0.4713,0.4688,0.4671,0.4652,0.4634,0.4602,0.4587,0.4557,0.4532,0.4485,0.4462,0.4433,0.4429,0.4415,0.4424,0.4429,0.4428,0.4429,0.4427,0.4413,0.4413,0.4413,0.4413,0,0.4768,0.476,0.4736,0.4708,0.4688,0.4665,0.4642,0.4629,0.4607,0.4587,0.4557,0.4538,0.4499,0.4469,0.4438,0.442,0.4413,0.441,0.4405,0.4409,0.4418,0.4413,0.4451,0.4411,0.4412,0.4412,0.4412,0.4412,0.4751,0.4733,0.4707,0.468,0.4661,0.464,0.4621,0.4603,0.4578,0.4546,0.4536,0.4505,0.4478,0.4435,0.4418,0.4393,0.4394,0.4386,0.4384,0.4383,0.4383,0.4422,0.4387,0.4387,0.4387,0.4387,0.4387,0,0.4722,0.4705,0.468,0.4649,0.4628,0.4623,0.4598,0.458,0.4553,0.4529,0.4505,0.447,0.4441,0.4417,0.4387,0.4371,0.4367,0.4364,0.4364,0.4361,0.4383,0.4391,0.4368,0.4368,0.4368,0.4368,0.4368,0.4368,0.4704,0.4674,0.4663,0.4622,0.4605,0.4575,0.4561,0.4541,0.4522,0.4485,0.4461,0.4445,0.4421,0.4389,0.4362,0.4355,0.4345,0.4342,0.4335,0.4357,0.4359,0.4361,0.4368,0.434,0.434,0.4314,0.4314,0.4314]}]]